This demonstration page uses our WeatherBlox Daily Observations layout. Learn more.

Left ArrowRight Arrow

39.01783, -85.05884

Hourly Observations for December 15, 2017

Temp ( °F °C ) Dew Point ( °F °C ) Humidity (%) Winds ( mph kmh ) Pressure ( in mb ) Visibility ( mi km ) Precip ( " mm )
12:52 am 00:52 Cloudy 24 -4.4 16 -8.9 71 71 N 5 7 30.08 1019 10 16 0.00 0.00
1:52 am 01:52 Cloudy 24 -4.4 17 -8.3 75 75 Calm 30.06 1018 10 16 0.00 0.00
2:52 am 02:52 Cloudy 23 -5 19 -7.2 85 85 Calm 30.06 1018 9 14 0.00 0.00
3:52 am 03:52 Cloudy 23 -5 18 -7.8 81 81 SW 3 6 30.05 1018 8 13 0.00 0.00
4:52 am 04:52 Partly Cloudy 22 -5.6 18 -7.8 85 85 SW 3 6 30.05 1018 8 13 0.00 0.00
5:52 am 05:52 Mostly Cloudy 21 -6.1 18 -7.8 88 88 SW 3 6 30.05 1018 7 11 0.00 0.00
6:52 am 06:52 Partly Cloudy with Mist and Fog 19 -7.2 17 -8.3 92 92 Calm 30.04 1017 6 10 0.00 0.00
7:52 am 07:52 Cloudy with Mist and Fog 20 -6.7 18 -7.8 92 92 SSW 3 6 30.04 1017 5 8 0.00 0.00
8:52 am 08:52 Mostly Cloudy with Mist and Fog 22 -5.6 19 -7.2 89 89 SSW 7 11 30.04 1017 5 8 0.00 0.00
9:52 am 09:52 Cloudy with Haze 25 -3.9 19 -7.2 78 78 SW 8 13 30.05 1018 6 10 0.00 0.00
10:52 am 10:52 Cloudy 27 -2.8 20 -6.7 75 75 SW 8 13 30.07 1018 7 11 0.00 0.00
11:52 am 11:52 Partly Cloudy 32 0 21 -6.1 64 64 SW 12 19 30.03 1017 10 16 0.00 0.00
12:52 pm 12:52 Cloudy 31 -0.6 20 -6.7 64 64 WSW 14 22 30.02 1017 10 16 0.00 0.00
1:52 pm 13:52 Cloudy 31 -0.6 21 -6.1 67 67 WSW 14 22 30.01 1016 10 16 0.00 0.00
2:52 pm 14:52 Cloudy 32 0 21 -6.1 64 64 SW 15 24 30.01 1016 10 16 0.00 0.00
3:22 pm 15:22 Cloudy 32 0 21 -6.1 64 64 WSW 12 19 30.06 1018 10 16 0.00 0.00
3:52 pm 15:52 Cloudy 32 0 22 -5.6 66 66 WSW 10 17 30.02 1017 10 16 0.00 0.00
4:36 pm 16:36 Cloudy 32 0 22 -5.6 66 66 W 16 26 30.06 1018 10 16 0.00 0.00
4:52 pm 16:52 Cloudy 32 0 22 -5.6 66 66 WSW 10 17 30.04 1017 10 16 0.00 0.00
5:52 pm 17:52 Cloudy 32 0 22 -5.6 66 66 W 13 20 30.07 1018 10 16 0.00 0.00
6:52 pm 18:52 Mostly Cloudy 31 -0.6 22 -5.6 69 69 WSW 6 9 30.09 1019 10 16 0.00 0.00
7:52 pm 19:52 Cloudy 31 -0.6 22 -5.6 69 69 SW 6 9 30.10 1019 10 16 0.00 0.00
8:52 pm 20:52 Cloudy 31 -0.6 23 -5 72 72 SW 7 11 30.10 1019 10 16 0.00 0.00
9:21 pm 21:21 Cloudy 32 0 23 -5 69 69 SW 7 11 30.15 1021 10 16 0.00 0.00
9:48 pm 21:48 Cloudy 32 0 23 -5 69 69 SW 7 11 30.15 1021 10 16 0.00 0.00
9:52 pm 21:52 Cloudy 32 0 23 -5 69 69 SSW 8 13 30.10 1019 10 16 0.00 0.00
10:52 pm 22:52 Cloudy 32 0 23 -5 69 69 SW 7 11 30.10 1019 10 16 0.00 0.00
11:52 pm 23:52 Cloudy 32 0 24 -4.4 73 73 SSW 6 9 30.11 1020 10 16 0.00 0.00

Powered by AerisWeather